Location: Munkebjergskolens Observatorium
(55.3864°N, 10.3987°E)
Time: 16:16:03
(UTC+02:00)

JY1SAT - Visible Passes

Search period start: 01 April 2023 00:00
Search period end: 11 April 2023 00:00
Orbit: 557 x 577 km, 97.6° (Epoch: 30 March)

Date Brightness Start Highest point End Pass type
(mag) Time Alt. Az. Time Alt. Az. Time Alt. Az.
01 Apr ? 21:54:38 33° SE 21:56:08 55° ENE 22:00:06 10° N visible
01 Apr ? 23:30:41 19° WSW 23:31:33 21° W 23:34:39 10° NW visible
02 Apr ? 21:55:33 32° SE 21:57:09 56° ENE 22:01:07 10° N visible
02 Apr ? 23:31:37 19° WSW 23:32:34 20° W 23:35:38 10° NW visible
03 Apr ? 21:56:27 31° SE 21:58:09 57° ENE 22:02:07 10° N visible
03 Apr ? 23:32:31 18° WSW 23:33:35 20° W 23:36:36 10° NW visible
04 Apr ? 21:57:20 30° SE 21:59:07 58° ENE 22:03:06 10° N visible
04 Apr ? 23:33:24 17° WSW 23:34:34 20° W 23:37:33 10° NW visible
05 Apr ? 21:58:12 29° SE 22:00:04 60° ENE 22:04:04 10° N visible
05 Apr ? 23:34:15 17° WSW 23:35:32 19° W 23:38:29 10° NW visible
06 Apr ? 21:59:03 28° SE 22:01:00 61° ENE 22:05:00 10° N visible
06 Apr ? 23:35:06 16° WSW 23:36:29 19° W 23:39:24 10° NW visible
07 Apr ? 21:59:52 27° SE 22:01:55 62° ENE 22:05:56 10° N visible
07 Apr ? 23:35:55 16° WSW 23:37:24 19° W 23:40:18 10° NW visible
08 Apr ? 22:00:41 26° SE 22:02:49 63° ENE 22:06:51 10° N visible
08 Apr ? 23:36:45 15° WSW 23:38:19 18° W 23:41:10 10° NW visible
09 Apr ? 22:01:28 25° SSE 22:03:42 65° ENE 22:07:44 10° N visible
09 Apr ? 23:37:31 14° WSW 23:39:12 18° W 23:42:02 10° NW visible
10 Apr ? 22:02:15 24° SSE 22:04:33 66° ENE 22:08:36 10° N visible
10 Apr ? 23:38:18 14° WSW 23:40:05 18° W 23:42:52 10° NW visible
